Poteau, OK

8:18 PM CDT on June 26, 2017 (GMT -0500)
Kerr

Weather History for KRKR - March, 2014

Change the Weather History Date:

Monday, March 24, 2014

  Actual Average (KFSM) Record (KFSM)
Temperature  
Mean Temperature 47 °F -  
Max Temperature 62 °F 64 °F 92 °F (1929)
Min Temperature 32 °F 42 °F 25 °F (1974)
Degree Days  
Heating Degree Days 18    
Moisture  
Dew Point 35 °F    
Average Humidity 67    
Maximum Humidity 100    
Minimum Humidity 36    
Precipitation  
Precipitation 0.00 in - - ()
Sea Level Pressure  
Sea Level Pressure 30.19 in    
Wind  
Wind Speed 2 mph (North)    
Max Wind Speed 22 mph    
Max Gust Speed 28 mph    
Visibility 10 miles    
Events      
Averages and records for this station are not official NWS values.
T = Trace of Precipitation, MM = Missing Value Source: NWS Daily Summary

Daily Weather History Graph

Daily Weather History Graph

Search for Another Location

Airport or City:

Trip Planner

Search our weather history database for the weather conditions in past years. The results will help you decide how hot, cold, wet, or windy it might be!

Date:

Astronomy

Mar. 24, 2014 Rise Set
Actual Time 7:16 AM CDT 7:33 PM CDT
Civil Twilight 6:51 AM CDT 7:58 PM CDT
Nautical Twilight 6:21 AM CDT 8:28 PM CDT
Astronomical Twilight 5:51 AM CDT 8:58 PM CDT
Moon 2:34 AM CDT (3/24) 1:12 PM CDT (3/24)
Length of Visible Light 13h 07m
Length of Day
12h 16m
Last Quarter, 43% of the Moon is Illuminated
Mar 24
Last Quarter
Mar 30
New
Apr 7
First Quarter
Apr 15
Full
Apr 22
Last Quarter

Hourly Weather History & Observations

Time (CDT) Temp. Dew Point Humidity Pressure Visibility Wind Dir Wind Speed Gust Speed Precip Events Conditions
12:15 AM 37.4 °F 35.6 °F 93% 30.27 in - Calm Calm - N/A   Unknown
12:35 AM 37.4 °F 35.6 °F 93% 30.28 in - Calm Calm - N/A   Unknown
12:55 AM 37.4 °F 35.6 °F 93% 30.27 in - Calm Calm - N/A   Unknown
1:15 AM 37.4 °F 35.6 °F 93% 30.27 in - Calm Calm - N/A   Unknown
1:35 AM 37.4 °F 35.6 °F 93% 30.26 in - Calm Calm - N/A   Unknown
1:55 AM 35.6 °F 35.6 °F 100% 30.27 in - Calm Calm - N/A   Unknown
2:15 AM 35.6 °F 35.6 °F 100% 30.27 in - Calm Calm - N/A   Unknown
2:35 AM 35.6 °F 35.6 °F 100% 30.26 in - Calm Calm - N/A   Unknown
2:55 AM 35.6 °F 33.8 °F 93% 30.26 in - Calm Calm - N/A   Unknown
3:15 AM 35.6 °F 33.8 °F 93% 30.26 in - Calm Calm - N/A   Unknown
3:35 AM 35.6 °F 33.8 °F 93% 30.26 in - Calm Calm - N/A   Unknown
3:55 AM 35.6 °F 35.6 °F 100% 30.25 in - Calm Calm - N/A   Unknown
4:15 AM 35.6 °F 35.6 °F 100% 30.25 in - Calm Calm - N/A   Unknown
4:35 AM 33.8 °F 33.8 °F 100% 30.25 in - Calm Calm - N/A   Unknown
4:55 AM 35.6 °F 35.6 °F 100% 30.25 in - Calm Calm - N/A   Unknown
5:15 AM 33.8 °F 33.8 °F 100% 30.24 in - Calm Calm - N/A   Unknown
5:35 AM 33.8 °F 33.8 °F 100% 30.24 in - Calm Calm - N/A   Unknown
5:55 AM 33.8 °F 32.0 °F 93% 30.24 in - Calm Calm - N/A   Unknown
6:15 AM 33.8 °F 33.8 °F 100% 30.24 in - Calm Calm - N/A   Unknown
6:35 AM 33.8 °F 33.8 °F 100% 30.23 in - Calm Calm - N/A   Unknown
6:55 AM 33.8 °F 33.8 °F 100% 30.24 in - Calm Calm - N/A   Unknown
7:15 AM 33.8 °F 33.8 °F 100% 30.25 in - Calm Calm - N/A   Unknown
7:35 AM 33.8 °F 33.8 °F 100% 30.25 in - Calm Calm - N/A   Unknown
7:55 AM 32.0 °F 32.0 °F 100% 30.25 in - Calm Calm - N/A   Unknown
8:15 AM 33.8 °F 33.8 °F 100% 30.25 in - Calm Calm - N/A   Unknown
8:35 AM 35.6 °F 35.6 °F 100% 30.25 in - Calm Calm - N/A   Unknown
8:55 AM 39.2 °F 37.4 °F 93% 30.25 in - Calm Calm - N/A   Unknown
9:15 AM 42.8 °F 35.6 °F 76% 30.25 in - Calm Calm - N/A   Unknown
9:35 AM 44.6 °F 33.8 °F 66% 30.26 in - Calm Calm - N/A   Unknown
9:55 AM 44.6 °F 32.0 °F 61% 30.26 in - Calm Calm - N/A   Unknown
10:15 AM 44.6 °F 32.0 °F 61% 30.25 in - Calm Calm - N/A   Unknown
10:35 AM 48.2 °F 33.8 °F 58% 30.24 in - NE 3.5 mph - N/A   Unknown
10:55 AM 51.8 °F 32.0 °F 47% 30.23 in - Calm Calm - N/A   Unknown
11:15 AM 51.8 °F 30.2 °F 44% 30.23 in - Calm Calm - N/A   Unknown
11:35 AM 51.8 °F 30.2 °F 44% 30.22 in - Calm Calm - N/A   Unknown
11:55 AM 51.8 °F 32.0 °F 47% 30.21 in - Calm Calm - N/A   Unknown
12:15 PM 55.4 °F 32.0 °F 41% 30.20 in - Calm Calm - N/A   Unknown
12:35 PM 53.6 °F 32.0 °F 44% 30.18 in - Calm Calm - N/A   Unknown
1:15 PM 55.4 °F 32.0 °F 41% 30.16 in - Calm Calm - N/A   Unknown
1:35 PM 57.2 °F 32.0 °F 38% 30.15 in - SE 4.6 mph - N/A   Unknown
1:55 PM 59.0 °F 33.8 °F 39% 30.14 in - Calm Calm - N/A   Unknown
2:15 PM 59.0 °F 33.8 °F 39% 30.13 in - West 4.6 mph - N/A   Unknown
2:35 PM 60.8 °F 33.8 °F 36% 30.11 in 10.0 mi Calm Calm - N/A   Unknown
2:55 PM 60.8 °F 33.8 °F 36% 30.11 in 10.0 mi SSW 4.6 mph - N/A   Unknown
3:15 PM 60.8 °F 35.6 °F 39% 30.09 in 10.0 mi Calm Calm - N/A   Unknown
3:35 PM 60.8 °F 35.6 °F 39% 30.08 in 10.0 mi WSW 8.1 mph - N/A   Unknown
3:55 PM 60.8 °F 33.8 °F 36% 30.08 in 10.0 mi WSW 3.5 mph - N/A   Unknown
4:15 PM 62.6 °F 35.6 °F 37% 30.07 in 10.0 mi West 4.6 mph - N/A   Unknown
4:35 PM 62.6 °F 35.6 °F 37% 30.06 in 10.0 mi North 6.9 mph - N/A   Unknown
4:55 PM 60.8 °F 35.6 °F 39% 30.06 in 10.0 mi North 5.8 mph - N/A   Unknown
5:15 PM 60.8 °F 35.6 °F 39% 30.06 in 10.0 mi North 4.6 mph - N/A   Unknown
5:35 PM 60.8 °F 37.4 °F 42% 30.07 in 10.0 mi NE 5.8 mph - N/A   Unknown
5:55 PM 60.8 °F 37.4 °F 42% 30.07 in 10.0 mi North 8.1 mph - N/A   Unknown
6:15 PM 59.0 °F 35.6 °F 42% 30.08 in 10.0 mi North 8.1 mph - N/A   Unknown
6:35 PM 59.0 °F 37.4 °F 45% 30.09 in 10.0 mi North 6.9 mph - N/A   Unknown
6:55 PM 59.0 °F 35.6 °F 42% 30.09 in 10.0 mi NE 3.5 mph - N/A   Unknown
7:15 PM 59.0 °F 37.4 °F 45% 30.09 in 10.0 mi Calm Calm - N/A   Unknown
7:35 PM 55.4 °F 37.4 °F 51% 30.09 in 10.0 mi NNE 3.5 mph - N/A   Unknown
7:55 PM 55.4 °F 39.2 °F 54% 30.10 in 10.0 mi Calm Calm - N/A   Unknown
8:15 PM 55.4 °F 41.0 °F 58% 30.10 in 10.0 mi Calm Calm - N/A   Unknown
8:35 PM 51.8 °F 37.4 °F 58% 30.11 in 10.0 mi Calm Calm - N/A   Unknown
8:55 PM 51.8 °F 39.2 °F 62% 30.13 in 10.0 mi North 4.6 mph - N/A   Unknown
9:15 PM 53.6 °F 39.2 °F 58% 30.15 in 10.0 mi North 6.9 mph - N/A   Unknown
9:35 PM 53.6 °F 37.4 °F 54% 30.17 in 10.0 mi North 10.4 mph - N/A   Unknown
9:55 PM 53.6 °F 37.4 °F 54% 30.18 in 10.0 mi North 16.1 mph 20.7 mph N/A   Unknown
10:15 PM 51.8 °F 35.6 °F 54% 30.19 in 10.0 mi North 16.1 mph 26.5 mph N/A   Unknown
10:35 PM 51.8 °F 37.4 °F 58% 30.20 in 10.0 mi North 17.3 mph 26.5 mph N/A   Unknown
10:55 PM 51.8 °F 37.4 °F 58% 30.20 in 10.0 mi North 21.9 mph 27.6 mph N/A   Unknown
11:15 PM 50.0 °F 37.4 °F 62% 30.22 in 10.0 mi North 13.8 mph 21.9 mph N/A   Unknown
11:35 PM 48.2 °F 35.6 °F 62% 30.23 in 10.0 mi North 18.4 mph 24.2 mph N/A   Unknown
11:55 PM 48.2 °F 35.6 °F 62% 30.23 in 10.0 mi North 13.8 mph - N/A   Unknown